Dundee, United Kingdom

6:35 PM BST on August 20, 2017 (GMT +0100)
Dundee

Weather History for EGPN - October, 2012

Change the Weather History Date:

Monday, October 29, 2012

  Actual Average Record
Temperature  
Mean Temperature 43 °F -  
Max Temperature 51 °F 47 °F 57 °F (2004)
Min Temperature 35 °F 40 °F 33 °F (2008)
Degree Days  
Heating Degree Days 22    
Moisture  
Dew Point 36 °F    
Average Humidity 82    
Maximum Humidity 93    
Minimum Humidity 66    
Precipitation  
Precipitation 0.00 in - - ()
Sea Level Pressure  
Sea Level Pressure 29.72 in    
Wind  
Wind Speed 4 mph ()    
Max Wind Speed 10 mph    
Max Gust Speed -    
Visibility 6.2 miles    
Events      
Averages and records for this station are not official NWS values.
T = Trace of Precipitation, MM = Missing Value Source: Averaged Metar Reports

Daily Weather History Graph

Daily Weather History Graph

Search for Another Location

Airport or City:

Trip Planner

Search our weather history database for the weather conditions in past years. The results will help you decide how hot, cold, wet, or windy it might be!

Date:

Astronomy

Oct. 29, 2012 Rise Set
Actual Time 7:14 AM GMT 4:35 PM GMT
Civil Twilight 6:34 AM GMT 5:15 PM GMT
Nautical Twilight 5:50 AM GMT 5:59 PM GMT
Astronomical Twilight 5:07 AM GMT 6:43 PM GMT
Moon 4:12 PM GMT (10/29) 6:55 AM GMT (10/29)
Length of Visible Light 10h 40m
Length of Day
9h 21m
Full, 100% of the Moon is Illuminated
Oct 29
Full
Oct 29
Full
Nov 7
Last Quarter
Nov 13
New
Nov 20
First Quarter

Hourly Weather History & Observations

Time (GMT) Temp. Windchill Dew Point Humidity Pressure Visibility Wind Dir Wind Speed Gust Speed Precip Events Conditions
6:20 AM 39.2 °F 37.0 °F 37.4 °F 93% 29.71 in 6.2 mi NW 3.5 mph - N/A   Partly Cloudy
6:50 AM 37.4 °F - 35.6 °F 93% 29.71 in 6.2 mi Variable 1.2 mph - N/A   Partly Cloudy
7:20 AM 39.2 °F - 37.4 °F 93% 29.74 in 6.2 mi Calm Calm - N/A   Scattered Clouds
7:50 AM 39.2 °F - 35.6 °F 87% 29.74 in 6.2 mi WNW 2.3 mph - N/A   Scattered Clouds
8:20 AM 39.2 °F - 37.4 °F 93% 29.74 in 6.2 mi West 1.2 mph - N/A   Scattered Clouds
8:50 AM 41.0 °F 38.0 °F 37.4 °F 87% 29.74 in 6.2 mi WNW 4.6 mph - N/A   Scattered Clouds
9:20 AM 41.0 °F 38.0 °F 37.4 °F 87% 29.74 in 6.2 mi WNW 4.6 mph - N/A   Scattered Clouds
9:50 AM 41.0 °F 38.0 °F 37.4 °F 87% 29.77 in 6.2 mi WNW 4.6 mph - N/A   Scattered Clouds
10:20 AM 44.6 °F 40.2 °F 41.0 °F 87% 29.74 in 6.2 mi WSW 8.1 mph - N/A   Scattered Clouds
10:50 AM 44.6 °F 39.7 °F 41.0 °F 87% 29.74 in 6.2 mi SW 9.2 mph - N/A   Scattered Clouds
11:20 AM 42.8 °F 37.0 °F 39.2 °F 87% 29.74 in 6.2 mi SW 10.4 mph - N/A   Scattered Clouds
11:50 AM 51.8 °F - 42.8 °F 71% 29.74 in 6.2 mi West 5.8 mph - N/A   Scattered Clouds
12:20 PM 46.4 °F 43.5 °F 39.2 °F 76% 29.74 in 6.2 mi WSW 5.8 mph - N/A   Scattered Clouds
12:50 PM 44.6 °F 41.4 °F 35.6 °F 71% 29.74 in 6.2 mi NE 5.8 mph - N/A   Scattered Clouds
1:20 PM 46.4 °F - 35.6 °F 66% 29.74 in 6.2 mi NE 1.2 mph - N/A   Scattered Clouds
1:50 PM 44.6 °F 41.4 °F 35.6 °F 71% 29.74 in 6.2 mi NW 5.8 mph - N/A   Scattered Clouds
2:20 PM 44.6 °F 41.4 °F 35.6 °F 71% 29.74 in 6.2 mi West 5.8 mph - N/A   Partly Cloudy
2:50 PM 44.6 °F 40.7 °F 35.6 °F 71% 29.71 in 6.2 mi West 6.9 mph - N/A   Partly Cloudy
3:20 PM 44.6 °F 39.7 °F 35.6 °F 71% 29.71 in 6.2 mi West 9.2 mph - N/A   Partly Cloudy
3:50 PM 42.8 °F 37.5 °F 37.4 °F 81% 29.71 in 6.2 mi West 9.2 mph - N/A   Partly Cloudy
4:20 PM 42.8 °F 38.0 °F 35.6 °F 76% 29.71 in 6.2 mi West 8.1 mph - N/A   Partly Cloudy
4:50 PM 41.0 °F 38.0 °F 35.6 °F 81% 29.71 in 6.2 mi WNW 4.6 mph - N/A   Partly Cloudy
5:20 PM 41.0 °F - 35.6 °F 81% 29.71 in 6.2 mi Calm Calm - N/A   Partly Cloudy
5:50 PM 37.4 °F 32.1 °F 33.8 °F 87% 29.71 in 6.2 mi WNW 6.9 mph - N/A   Partly Cloudy
6:20 PM 37.4 °F 30.8 °F 33.8 °F 87% 29.71 in 6.2 mi WNW 9.2 mph - N/A   Partly Cloudy
6:50 PM 37.4 °F 34.9 °F 32.0 °F 81% 29.71 in 6.2 mi NW 3.5 mph - N/A   Partly Cloudy
7:20 PM 35.6 °F 31.7 °F 32.0 °F 87% 29.71 in - WNW 4.6 mph - N/A   Clear
7:50 PM 35.6 °F 31.7 °F 32.0 °F 87% 29.71 in - WNW 4.6 mph - N/A   Clear
8:20 PM 35.6 °F 29.2 °F 32.0 °F 87% 29.68 in - WNW 8.1 mph - N/A   Clear
8:50 PM 35.6 °F 28.6 °F 32.0 °F 87% 29.68 in - WNW 9.2 mph - N/A   Clear
9:20 PM 35.6 °F 29.9 °F 32.0 °F 87% 29.68 in - WNW 6.9 mph - N/A   Clear
9:50 PM 37.4 °F 31.4 °F 32.0 °F 81% 29.68 in - WNW 8.1 mph - N/A   Clear